Location: Albany
(35.0170°S, 117.8920°E)
Time: 09:23:22
(UTC+08:00)

S-56A Canister/Altair - Pass Details

Date: 22 January 2021
Orbit: 632 x 2501 km, 38.9° (Epoch: 25 February)

Event Time Altitude Azimuth Distance (km) Brightness Sun altitude
Rises 12:43:10 0° 325° (NW) 5,366 12.1 73.8°
Reaches altitude 10° 12:46:33 10° 330° (NNW) 4,578 11.9 73.5°
Maximum altitude 12:59:12 49° 40° (NE) 2,960 11.5 72.3°
Drops below altitude 10° 13:13:21 10° 107° (ESE) 5,106 11.7 70.6°
Sets 13:17:19 0° 112° (ESE) 6,012 11.9 70.1°
